Flag for Romania Weather past 2 weeks in Brăila, Romania

Now
54 °F

Partly sunny.


Feels Like: 53 °F
Forecast: 42 / 51 °F
Wind: 3 mph from Southeast

Location: Galati

Current Time: Mar 2, 2015 at 5:36:29 PM

Latest Report: Mar 2, 2015 at 4:00 PM


Visibility: 6 mi

Pressure: 29.86 "Hg

Humidity: 76%

Dew point: 46 °F

Location of BrăilaLocation

Historic Weather in Brăila — Graph

°F

Brăila temperature yesterday

Maximum temperature yesterday: 46 °F (at 5:00 PM)
Minimum temperature yesterday: 40 °F (at 7:00 AM)
Average temperature yesterday: 43 °F

Past Weeks' High & Low Weather Summary

 TemperatureHumidityPressure
High56 °F (Feb 27, 3:00 PM)100% (Feb 15, 8:00 PM)30.72 "Hg (Feb 15, 8:00 PM)
Low16 °F (Feb 17, 8:00 AM)33% (Feb 17, 3:00 PM)29.78 "Hg (Feb 24, 3:00 PM)
Average39 °F83%30.16 "Hg
* Reported Feb 15 4:00 PM — Mar 2 4:00 PM, Brăila, Weather by CustomWeather, © 2015

Note: Actual official high and low records may vary slightly from our data, if they occured in-between our weather recording intervals... More about our weather records

Advertising

Brăila weather history for previous 24 hours

 ConditionsComfort  
Time TempWeatherWind HumidityBarometerVisibility
4:00 PM
Mon, Mar 2
54 °FPartly sunny.3 mph76%29.86 "Hg6 mi
3:00 PM53 °FPartly sunny.5 mph76%29.88 "Hg6 mi
2:00 PM50 °FFog.5 mph81%29.90 "Hg2 mi
1:00 PM45 °FFog.5 mph93%29.92 "Hg2 mi
12:00 PM45 °FFog.3 mph91%29.94 "Hg2 mi
11:00 AM44 °FFog.5 mph87%29.97 "Hg2 mi
10:00 AM43 °FFog.3 mph88%29.96 "Hg2 mi
9:00 AM41 °FFog.5 mph91%29.97 "Hg2 mi
8:00 AM41 °FFog.3 mph94%29.97 "Hg2 mi
7:00 AM40 °FFog.3 mph95%29.97 "Hg2 mi
6:00 AM41 °FFog.3 mph92%29.98 "Hg2 mi
5:00 AM42 °FOvercast.3 mph92%29.99 "Hg6 mi
4:00 AM42 °FOvercast.5 mph91%29.99 "Hg6 mi
3:00 AM42 °FOvercast.5 mph92%30.01 "Hg6 mi
2:00 AM42 °FOvercast.3 mph92%30.03 "Hg6 mi
1:00 AM42 °FOvercast.5 mph87%30.03 "Hg6 mi
12:00 AM43 °FOvercast.5 mph90%30.03 "Hg6 mi
10:00 PM
Sun, Mar 1
45 °FFog.3 mph91%30.05 "Hg2 mi
9:00 PM44 °FFog.2 mph96%30.05 "Hg2 mi
8:00 PM44 °FFog.2 mph95%30.06 "Hg2 mi
7:00 PM44 °FFog.2 mph94%30.06 "Hg2 mi
6:00 PM44 °FFog.2 mph93%30.06 "Hg2 mi
5:00 PM46 °FOvercast.1 mph88%30.07 "Hg6 mi
Weather by CustomWeather, © 2015

See weather overviewHow to use our weather pages